www.pogodaiklimat.ru

Погода и климат >> Архив погоды >> Россия >> Якутия >> Черский


ПОГОДА в Черском

  • Прогноз погоды в Черском
  • Монитор погоды в Черском
  • Климат города

АРХИВ ПОГОДЫ в Черском

Время (UTC), дата Ветер
(напр.,м/с)
 
Видим.   Явления Облачность Т
(С)
Тd
(С)
f
(%)
Тe
(С)
Тes
(С)
Комфортность P
(гПа)
Po
(гПа)
Тmin
(С)
Tmax
(С)
R
(мм)
R24
(мм)
S
(см)
18 13.05 ЮВ 7-12
{14}
20 км 9/0
[Ac As]
+1.6 -7.5 51 -4 -4 1002.2 999.1
21 13.05 ЮВ 10-16
{16}
10 км слабый снег 10/0
[Ac As]
+1.1 -4.9 64 -6 -6 1001.0 997.9 +1.1 0.0 68
00 14.05 ЮВ 7-12
{16}
20 км {снег} 3/0
[Ac trans]
+4.1 -2.7 61 -1 +1 1000.5 997.3
03 14.05 ЮВ 6-10
{12}
20 км 10/9 1500 м
[Sc Ac As]
+5.1 -2.1 60 +1 +1 1000.8 997.2
06 14.05 ЮЗ 3
{10}
20 км 10/10 1500 м
[Sc]
+4.6 -1.1 66 +1 +1 1002.3 999.2
09 14.05 Ю 2 20 км 10/8 1500 м
[Sc Ac und]
+2.8 -0.5 79 -0 -0 1005.6 1002.5 +5.9 0.0
12 14.05 ЮВ 1 20 км 8/6 1500 м
[Sc Ac As]
+1.5 -1.7 79 -0 -0 1006.7 1003.6
15 14.05 ЮЗ 2 20 км 6/3 1500 м
[Sc Ac As]
+0.6 -4.0 71 -3 -3 1009.1 1006.0
18 14.05 ЮВ 2 20 км 3/3 1500 м
[Sc Ac As]
+0.3 -4.4 71 -3 -2 1010.4 1007.2
21 14.05 З 1 20 км ясно +2.0 -4.8 61 +1 +7 1012.2 1009.0 -0.4 62
00 15.05 Ю 1 4000 м 8/0
[Ac trans Ci fib]
+4.2 -4.8 52 +3 +11 опасность
простуды
1013.1 1010.0
03 15.05 Ю 3 20 км 8/0
[Ac trans Ci fib]
+6.0 -4.1 48 +3 +8 1011.9 1008.8
06 15.05 Ю 3 20 км 10/0
[Ac trans Ci fib]
+6.5 -5.7 41 +4 +6 1011.0 1007.9
09 15.05 СВ 3 20 км 8/0
[Ac trans Ci fib]
+3.3 -3.4 61 -0 0 1011.7 1008.6 +6.5
12 15.05 С 4 20 км 9/0
[As trans]
-0.6 -3.4 81 -6 -6 1012.4 1009.2
15 15.05 С 4 20 км 10/0
[Ac As Ci fib]
-2.7 -4.6 87 -9 -9 1012.4 1009.2
18 15.05 Ю 1 20 км 9/0
[Ac As Ci fib]
+0.2 -3.7 75 -2 -1 1012.7 1009.5
21 15.05 СВ 2 20 км 4/0
[Ci fib]
+1.8 -5.3 59 -1 +4 1013.2 1010.0 -2.9 51
00 16.05 СВ 3 20 км 3/0
[Ci fib]
+4.1 -3.8 56 +1 +8 1013.2 1010.1
03 16.05 СВ 3 20 км 6/0
[Ac As]
+5.9 -1.7 58 +3 +7 1012.7 1009.6
06 16.05 СВ 3 20 км 9/0
[Ac As Ci sp]
+5.3 -1.8 60 +2 +4 1012.5 1009.4
09 16.05 В 2 20 км 6/0
[Ac As Ci fib]
+8.3 -2.5 46 +7 +7 1012.4 1009.3 +9.0
12 16.05 В 3 20 км 6/0
[Ac As Ci fib]
+5.7 -5.3 45 +3 +3 1012.5 1009.4
15 16.05 В 2 20 км 6/0
[As trans Ci fib]
+5.3 -5.6 45 +3 +3 1011.9 1008.8
18 16.05 ЮВ 2 20 км 4/0
[Ci fib]
+6.4 -6.3 40 +5 +6 1011.1 1008.0
21 16.05 ЮВ 2 20 км ясно +9.2 -4.1 39 +8 +13 1011.0 1007.9 -5.3 48
00 17.05 ЮВ 3 20 км 6/0
[Ci fib]
+9.4 -4.1 38 +8 +15 1010.2 1007.1
03 17.05 ЮВ 3 20 км 8/0
[Ac As]
+9.3 -3.8 39 +8 +11 1009.3 1006.2
06 17.05 ЮВ 3 20 км 8/0
[Ac As]
+10.4 -3.3 38 +9 +10 1009.3 1006.2
09 17.05 ЮВ 3 20 км 3/0
[Ac trans]
+9.5 -3.3 40 +8 +8 1009.3 1006.2 +10.4
12 17.05 ЮВ 3 20 км 1/0
[Ac trans]
+7.0 -2.5 51 +5 +5 1009.8 1006.7
15 17.05 ЮВ 3 20 км ясно +5.9 -2.0 57 +3 +3 1010.5 1007.4
18 17.05 ЮВ 3 20 км ясно +6.8 -1.1 57 +4 +5 1010.2 1007.1
21 17.05 Ю 3 20 км 1/0
[Ci fib]
+9.0 -0.5 51 +7 +11 1010.8 1007.7 +5.9 41
00 18.05 ЮВ 3 20 км 6/0
[Ci fib]
+9.6 -2.2 44 +8 +15 1011.0 1007.9
03 18.05 ЮВ 2 20 км 8/0
[Cc]
+11.6 -2.2 38 +11 +18 1010.6 1007.6
06 18.05 ЮВ 2 20 км 9/0
[Ac As]
+11.4 -2.2 39 +11 +12 1011.1 1008.1
09 18.05 В 1 20 км 4/0
[Ac As]
+10.4 -2.7 40 +11 +11 1011.7 1008.6 +12.4
12 18.05 В 2 20 км 8/0
[Ac As]
+9.2 -2.5 44 +8 +8 1012.4 1009.3
15 18.05 ЮВ 2 20 км 10/0
[Ac As]
+6.3 -2.5 53 +5 +5 1013.2 1010.1
18 18.05 ЮВ 3 20 км 3/0
[Ac As]
+4.8 -2.2 60 +2 +2 1014.2 1011.1
21 18.05 ЮВ 3 20 км 3/0
[Ac trans]
+7.4 -1.9 52 +5 +9 1014.5 1011.4 +4.8 26
00 19.05 Ю 2 20 км 8/0
[Ac cast]
+9.7 -1.4 46 +9 +13 1015.0 1011.9
03 19.05 ЮЗ 1 20 км 3/0
[Ci]
+11.9 -1.4 40 +12 +22 1014.6 1011.6
06 19.05 СВ 1 20 км ясно +11.8 -0.5 43 +12 +17 1014.3 1011.3
09 19.05 СВ 2 20 км ясно +10.0 -0.2 49 +9 +10 1014.4 1011.3 +12.5
12 19.05 СВ 3 20 км ясно +5.4 -1.4 62 +2 +2 1014.4 1011.3
15 19.05 СВ 3 20 км ясно +4.1 -2.1 64 +1 +1 1014.4 1011.3
18 19.05 С 2 20 км ясно +3.8 -1.8 67 +1 +2 1014.4 1011.3
21 19.05 С 3 20 км ясно +5.0 -1.6 62 +2 +6 1014.5 1011.4 +3.8 16
00 20.05 СВ 3 20 км ясно +5.2 -1.3 63 +2 +10 опасность
простуды
1014.7 1011.6
03 20.05 С 5 20 км 6/0
[Ci fib]
+3.2 -0.6 76 -2 +2 1014.3 1011.2
06 20.05 С 3 20 км 6/0
[Ci fib]
+4.1 -0.5 72 +1 +4 1013.8 1010.7
09 20.05 С 3 20 км 8/0
[Ac trans Ci fib]
+3.3 -0.2 78 -1 -0 1012.1 1009.0 +5.6
12 20.05 СЗ 1 20 км 5/0
[Ac As Ci]
-1.2 -2.4 92 -3 -3 1011.3 1008.1

 

Местоположение метеостанции Черский (Якутия, Россия): широта 68.73 долгота 161.30 высота над уровнем моря 28 м.

В архиве по умолчанию представлена погода в Черском за последнюю неделю. Архивные данные за месяц целиком и за предыдущие месяцы, начиная с января 2011 года, Вы можете получить, выбрав интересующий диапазон дат из раскрывающегося списка и нажав кнопку "Ввод!".


*Определитесь, кто Вы:
робот инопланетянин человек

Внимание! Время в таблицах - всемирное. Для получения местного времени необходимо прибавить поправку, которая в Черском равна 11 ч.

Смотрите также архив погоды в соседних городах и на ближайших метеорологических станциях:

Погода в Анюйске (Чукотка, Россия) (43 км)
Погода в Константиновской (Чукотка, Россия) (65 км)
Погода в Бухте Амбарчик (Чукотка, Россия) (107 км)
Погода в Колымской (Якутия, Россия) (109 км)
Погода на Островном (Чукотка, Россия) (133 км)
Погода в Билибино (Чукотка, Россия) (222 км)
Погода в Раучуе (Чукотка, Россия) (223 км)
Погода в Баимке (Чукотка, Россия) (274 км)
Погода в Андрюшкино (Якутия, Россия) (276 км)
Погода на Айон Острове (Чукотка, Россия) (291 км)

Пояснения к столбцам:

Ветер - указаны скорость ветра в м/с - средняя за 10 мин, порывы в срок и между сроками (в фигурных скобках) и направление, откуда дует ветер: С - северный, СВ - северо-восточный, В - восточный, ЮВ - юго-восточный, Ю - южный, ЮЗ - юго-западный, З - западный, СЗ - северо-западный.
Видимость - горизонтальная дальность видимости в метрах или километрах. При видимости от 1 до 10 км при отсутствии осадков обычно наблюдается дымка, при ухудшении видимости до 1 км и менее - туман. В сухую погоду видимость может ухудшаться дымом, пылью или мглою.
Явления - указаны атмосферные явления, наблюдавшиеся в срок или в последний час перед сроком; фигурными скобками обозначены явления, наблюдавшиеся между сроками (за 1-3 часа до срока); квадратными скобками обозначены град или гололедные отложения с указанием их диаметра в мм.
Облачность - указаны через наклонную черту общая и нижняя облачность в баллах и высота нижней границы облаков в метрах; квадратными скобками обозначены формы облаков: Ci - перистые, Cs - перисто-слоистые, Cc - перисто-кучевые, Ac - высококучевые, As - высокослоистые, Sc - слоисто-кучевые, Ns - слоисто-дождевые, Cu - кучевые, Cb - кучево-дождевые. Подробнее классификацию облаков см. в Атласе облаков (PDF).
T - Температура воздуха - температура, измеренная на высоте 2 м над землей.
Td - Температура точки росы - температура, при понижении до которой содержащийся в воздухе водяной пар достигнет насыщения.
f - Относительная влажность воздуха - влажноcть воздуха, измеренная на высоте 2 м над землей.
Te - Эффективная температура - температура, которую ощущает одетый по сезону человек в тени. Характеристика душности погоды. При расчете учитывается влияние влажности воздуха и скорости ветра на теплоощущения человека.
Tes - Эффективная температура на солнце - температура, которую ощущает человек, с поправкой на солнечный нагрев. Характеристика знойности погоды. Зависит от высоты солнца над горизонтом, облачности и скорости ветра. Ночью, в пасмурную погоду, а также при ветре 12 м/с и более поправка равна нулю.
P - Атмосферное давление - приведенное к уровню моря атмосферное давление.
Po - Атмосферное давление - измеренное на уровне метеостанции атмосферное давление.
Tmin - Минимальная температура - минимум температуры воздуха на высоте 2 м над землей.
Tmax - Максимальная температура - максимум температуры воздуха на высоте 2 м над землей.
R - Количество осадков - Количество выпавших осадков за период времени, мм. При наведении курсора мыши на число - период времени, за который выпало указанное количество осадков.
R24 - Количество осадков - Количество выпавших осадков за 24 часа, мм.
S - Снежный покров - Высота снежного покрова, см. При наведении курсора мыши на число - состояние снежного покрова и степень покрытия местности в баллах.